Location: Arcones
(41.1182°N, 3.7238°W)
Time: 23:40:18
(UTC+00:00)

Cosmos 2263 Rocket - Pass Details

Date: 23 March 2026
Orbit: 823 x 847 km, 71.0° (Epoch: 13 April)

Event Time Altitude Azimuth Distance (km) Brightness Sun altitude
Rises 19:47:33 0° 350° (N) 3,393 5.7 -15.2°
Reaches altitude 10° 19:51:21 10° 16° (NNE) 2,449 4.6 -15.9°
Maximum altitude 19:54:11 14° 46° (NE) 2,174 4.1 -16.4°
Enters shadow 19:55:16 13° 59° (ENE) 2,213 4.0 -16.6°
